Weather History for KLEB - July, 2013

Change the Weather History Date:

Monday, July 29, 2013

  Actual Average Record
Temperature  
Mean Temperature 72 °F -  
Max Temperature 82 °F 81 °F 96 °F (1963)
Min Temperature 59 °F 58 °F 42 °F (1987)
Cooling Degree Days 6    
Growing Degree Days 22 (Base 50)    
Moisture  
Dew Point 63 °F    
Average Humidity 81    
Maximum Humidity 100    
Minimum Humidity 42    
Precipitation  
Precipitation 0.33 in - - ()
Sea Level Pressure  
Sea Level Pressure 29.98 in    
Wind  
Wind Speed 2 mph (SW)    
Max Wind Speed 17 mph    
Max Gust Speed 22 mph    
Visibility 8 miles    
Events Rain , Thunderstorm    
Averages and records for this station are not official NWS values.
T = Trace of Precipitation, MM = Missing Value Source: NWS Daily Summary

Daily Weather History Graph

Daily Weather History Graph

Search for Another Location

Airport or City:

Trip Planner

Search our weather history database for the weather conditions in past years. The results will help you decide how hot, cold, wet, or windy it might be!

Date:

Astronomy

Jul. 29, 2013 Rise Set
Actual Time 5:35 AM EDT 8:15 PM EDT
Civil Twilight 5:02 AM EDT 8:48 PM EDT
Nautical Twilight 4:20 AM EDT 9:29 PM EDT
Astronomical Twilight 3:33 AM EDT 10:16 PM EDT
Moon 11:54 PM EDT (7/29) 1:31 PM EDT (7/29)
Length of Visible Light 15h 45m
Length of Day
14h 39m
Waning Gibbous, 51% of the Moon is Illuminated
Jul 29
Waning Gibbous
Jul 29
Last Quarter
Aug 6
New
Aug 14
First Quarter
Aug 20
Full

Hourly Weather History & Observations

Time (EDT) Temp. Heat Index Dew Point Humidity Pressure Visibility Wind Dir Wind Speed Gust Speed Precip Events Conditions
12:15 AM 71.6 °F - 64.4 °F 78% 29.99 in 10.0 mi Calm Calm - N/A   Overcast
12:42 AM 69.8 °F - 64.4 °F 83% 29.98 in 10.0 mi Calm Calm - N/A   Overcast
12:53 AM 70.0 °F - 64.9 °F 84% 29.95 in 10.0 mi SSE 3.5 mph - N/A   Mostly Cloudy
1:09 AM 69.8 °F - 64.4 °F 83% 29.98 in 10.0 mi SSE 3.5 mph - N/A   Mostly Cloudy
1:22 AM 69.8 °F - 64.4 °F 83% 29.98 in 10.0 mi Calm Calm - N/A   Mostly Cloudy
1:53 AM 69.1 °F - 64.9 °F 87% 29.94 in 10.0 mi Calm Calm - N/A   Overcast
2:25 AM 69.8 °F - 66.2 °F 88% 29.98 in 7.0 mi Calm Calm - 0.00 in Rain Light Rain
2:53 AM 68.0 °F - 66.0 °F 93% 29.94 in 10.0 mi SE 3.5 mph - 0.01 in   Overcast
3:53 AM 66.9 °F - 66.0 °F 97% 29.95 in 7.0 mi Calm Calm - N/A   Mostly Cloudy
4:53 AM 66.0 °F - 64.9 °F 96% 29.96 in 6.0 mi Calm Calm - N/A   Partly Cloudy
5:17 AM 66.2 °F - 64.4 °F 94% 29.99 in 5.0 mi Calm Calm - N/A   Mostly Cloudy
5:28 AM 64.4 °F - 64.4 °F 100% 29.99 in 5.0 mi Calm Calm - N/A   Mostly Cloudy
5:53 AM 64.9 °F - 63.0 °F 93% 29.96 in 1.5 mi Calm Calm - N/A   Mostly Cloudy
6:01 AM 64.4 °F - 64.4 °F 100% 29.99 in 4.0 mi Calm Calm - N/A   Mostly Cloudy
6:15 AM 64.4 °F - 64.4 °F 100% 29.99 in 4.0 mi Calm Calm - N/A   Mostly Cloudy
6:37 AM 64.4 °F - 64.4 °F 100% 30.00 in 4.0 mi Calm Calm - N/A   Scattered Clouds
6:46 AM 64.4 °F - 64.4 °F 100% 30.00 in 4.0 mi Calm Calm - N/A   Mostly Cloudy
6:53 AM 66.0 °F - 64.9 °F 96% 29.97 in 4.0 mi Calm Calm - N/A   Mostly Cloudy
7:53 AM 70.0 °F - 66.0 °F 87% 29.98 in 10.0 mi Calm Calm - N/A   Overcast
8:40 AM 71.6 °F - 66.2 °F 83% 30.01 in 10.0 mi SSW 4.6 mph - N/A   Scattered Clouds
8:53 AM 71.1 °F - 66.0 °F 84% 29.99 in 10.0 mi SSW 5.8 mph - N/A   Partly Cloudy
9:53 AM 73.9 °F - 64.9 °F 73% 29.99 in 10.0 mi SSW 5.8 mph - N/A   Scattered Clouds
10:53 AM 77.0 °F - 64.0 °F 64% 29.98 in 10.0 mi Variable 4.6 mph - N/A   Scattered Clouds
11:53 AM 80.1 °F 80.9 °F 60.1 °F 50% 29.96 in 10.0 mi Variable 3.5 mph - N/A   Mostly Cloudy
12:53 PM 80.1 °F 81.2 °F 62.1 °F 54% 29.96 in 10.0 mi WSW 8.1 mph - 0.00 in   Partly Cloudy
1:53 PM 82.0 °F 82.4 °F 60.1 °F 47% 29.95 in 10.0 mi West 6.9 mph - N/A   Partly Cloudy
2:28 PM 73.4 °F - 64.4 °F 73% 30.00 in 1.8 mi West 17.3 mph - 0.07 in Rain Rain
2:42 PM 71.6 °F - 60.8 °F 69% 30.00 in 0.8 mi Variable 3.5 mph 21.9 mph 0.27 in Rain , Thunderstorm Heavy Thunderstorms and Rain
2:53 PM 68.0 °F - 63.0 °F 84% 29.96 in 3.0 mi SE 9.2 mph 19.6 mph 0.32 in Rain , Thunderstorm Light Rain
3:10 PM 73.4 °F - 66.2 °F 78% 29.98 in 10.0 mi South 5.8 mph - 0.00 in   Overcast
3:53 PM 77.0 °F - 66.9 °F 71% 29.95 in 10.0 mi West 3.5 mph - 0.00 in   Partly Cloudy
4:53 PM 80.1 °F 81.1 °F 61.0 °F 52% 29.95 in 10.0 mi SW 6.9 mph - N/A   Mostly Cloudy
5:53 PM 81.0 °F 80.8 °F 55.9 °F 42% 29.96 in 10.0 mi West 8.1 mph - N/A   Partly Cloudy
6:53 PM 78.1 °F - 55.0 °F 45% 29.97 in 10.0 mi WSW 8.1 mph - N/A   Clear
7:53 PM 68.0 °F - 63.0 °F 84% 29.99 in 10.0 mi Calm Calm - N/A   Mostly Cloudy
8:53 PM 64.9 °F - 60.1 °F 84% 30.02 in 7.0 mi Calm Calm - N/A   Partly Cloudy
9:53 PM 61.0 °F - 59.0 °F 93% 30.04 in 10.0 mi Calm Calm - N/A   Partly Cloudy
10:53 PM 61.0 °F - 57.9 °F 90% 30.04 in 10.0 mi Calm Calm - N/A   Mostly Cloudy
11:53 PM 59.0 °F - 57.0 °F 93% 30.05 in 10.0 mi Calm Calm - N/A   Mostly Cloudy